This is the latest recevied weather packets stored in our database for station/object N0HEQ. If no packets are shown the sender has not sent any weather packets the latest 10 day(s).
| Time | Temp. | Humidity | Pressure | Rain* | Wind** | Luminosity | Snow |
|---|---|---|---|---|---|---|---|
| 1778007133 | 3.33° C | 96% | 1015.9 hPa | 0 mm | - | 119 W/m² | - |
| 1778006829 | 3.89° C | 96% | 1016.2 hPa | 0 mm | - | 144 W/m² | - |
| 1778006527 | 3.89° C | 96% | 1016.2 hPa | 0 mm | - | 99 W/m² | - |
| 1778006223 | 3.33° C | 96% | 1016.1 hPa | 0 mm | - | 100 W/m² | - |
| 1778005921 | 3.33° C | 96% | 1016.2 hPa | 0 mm | - | 87 W/m² | - |
| 1778005616 | 3.33° C | 96% | 1016.5 hPa | 0 mm | - | 116 W/m² | - |
| 1778005314 | 3.33° C | 96% | 1016.5 hPa | 0 mm | - | 105 W/m² | - |
| 1778005010 | 2.78° C | 96% | 1016.5 hPa | 0 mm | - | 101 W/m² | - |
| 1778004708 | 3.33° C | 96% | 1016.2 hPa | 0 mm | - | 120 W/m² | - |
| 1778004404 | 2.78° C | 97% | 1016.6 hPa | 0 mm | - | 115 W/m² | - |
| 1778004101 | 3.33° C | 97% | 1016.7 hPa | 0 mm | - | 97 W/m² | - |
| 1778003797 | 3.33° C | 97% | 1016.9 hPa | 0 mm | - | 78 W/m² | - |
| 1778003494 | 3.33° C | 97% | 1016.7 hPa | 0 mm | - | 98 W/m² | - |
| 1778003190 | 2.78° C | 97% | 1016.8 hPa | 0 mm | - | 108 W/m² | - |
| 1778002886 | 3.33° C | 97% | 1016.9 hPa | 0 mm | - | 91 W/m² | - |
| 1778002583 | 3.33° C | 97% | 1016.7 hPa | 0 mm | - | 108 W/m² | - |
| 1778002280 | 3.33° C | 97% | 1016.9 hPa | 0 mm | - | 82 W/m² | - |
| 1778001978 | 2.78° C | 97% | 1016.9 hPa | 0 mm | - | 87 W/m² | - |
| 1778001674 | 2.78° C | 97% | 1016.8 hPa | 0 mm | - | 87 W/m² | - |
| 1778001369 | 3.33° C | 97% | 1016.8 hPa | 0 mm | - | 84 W/m² | - |
| 1778001066 | 2.78° C | 97% | 1016.9 hPa | 0 mm | - | 86 W/m² | - |
| 1778000763 | 2.78° C | 97% | 1016.9 hPa | 0 mm | - | 94 W/m² | - |
| 1778000459 | 2.78° C | 97% | 1016.9 hPa | 0 mm | - | 125 W/m² | - |
| 1778000154 | 2.78° C | 97% | 1016.8 hPa | 0 mm | - | 119 W/m² | - |
| 1777999850 | 2.78° C | 97% | 1017 hPa | 0 mm | - | 103 W/m² | - |
* Rain latest hour (hover to see other rain measurements)
** Current wind speed in m/s (hover to see current wind gust speed)